Stündliche Wetter Abaújszántó

Heute, 22 Juni, Dienstag

Zeit Temperatur Niederschläge Wind Luftdruck Luftfeuchtigkeit
00:00 +21°C° 0.8 mm 1 m/S 739 mmHg 86%
01:00 +21°C° 0 mm 1 m/S 739 mmHg 90%
02:00 +21°C° 0.4 mm 1 m/S 739 mmHg 91%
03:00 +21°C° 0.4 mm 1 m/S 739 mmHg 92%
04:00 +20°C° 0.4 mm 1 m/S 739 mmHg 93%
05:00 +22°C° 0.2 mm 1 m/S 739 mmHg 90%
06:00 +23°C° 0.2 mm 1 m/S 739 mmHg 86%
07:00 +24°C° 0.2 mm 1 m/S 740 mmHg 83%
08:00 +25°C° 0 mm 2 m/S 740 mmHg 76%
09:00 +27°C° 0 mm 2 m/S 740 mmHg 68%
10:00 +29°C° 0 mm 3 m/S 740 mmHg 61%
11:00 +30°C° 0 mm 3 m/S 740 mmHg 57%
12:00 +31°C° 0 mm 3 m/S 740 mmHg 53%
13:00 +33°C° 0 mm 3 m/S 739 mmHg 49%
14:00 +32°C° 0 mm 2 m/S 739 mmHg 49%
15:00 +32°C° 0 mm 2 m/S 739 mmHg 49%
16:00 +34°C° 0 mm 2 m/S 739 mmHg 49%
17:00 +31°C° 0 mm 2 m/S 739 mmHg 54%
18:00 +30°C° 0 mm 2 m/S 739 mmHg 60%
19:00 +28°C° 0 mm 2 m/S 739 mmHg 66%
20:00 +27°C° 0 mm 2 m/S 739 mmHg 70%
21:00 +26°C° 0 mm 2 m/S 739 mmHg 74%
22:00 +25°C° 0 mm 2 m/S 739 mmHg 79%
23:00 +24°C° 0 mm 2 m/S 740 mmHg 81%

Morgen, 23 Juni, Mittwoch

Zeit Temperatur Niederschläge Wind Luftdruck Luftfeuchtigkeit
00:00 +23°C° 0 mm 1 m/S 740 mmHg 84%
01:00 +23°C° 0 mm 1 m/S 740 mmHg 87%
02:00 +22°C° 0 mm 1 m/S 740 mmHg 89%
03:00 +21°C° 0 mm 2 m/S 741 mmHg 90%
04:00 +20°C° 0 mm 2 m/S 741 mmHg 92%
05:00 +23°C° 0 mm 2 m/S 741 mmHg 86%
06:00 +24°C° 0 mm 2 m/S 742 mmHg 80%
07:00 +26°C° 0 mm 2 m/S 742 mmHg 74%
08:00 +27°C° 0 mm 2 m/S 742 mmHg 69%
09:00 +29°C° 0 mm 2 m/S 742 mmHg 64%
10:00 +30°C° 0 mm 2 m/S 742 mmHg 59%
11:00 +31°C° 0 mm 2 m/S 742 mmHg 56%
12:00 +32°C° 0 mm 2 m/S 742 mmHg 53%
13:00 +34°C° 0 mm 2 m/S 742 mmHg 50%
14:00 +34°C° 0 mm 2 m/S 742 mmHg 50%
15:00 +34°C° 0 mm 2 m/S 742 mmHg 50%
16:00 +33°C° 0 mm 1 m/S 742 mmHg 50%
17:00 +31°C° 0 mm 2 m/S 742 mmHg 56%
18:00 +30°C° 0 mm 2 m/S 742 mmHg 62%
19:00 +28°C° 0 mm 2 m/S 743 mmHg 68%
20:00 +27°C° 0 mm 2 m/S 743 mmHg 73%
21:00 +26°C° 0 mm 2 m/S 743 mmHg 77%
22:00 +24°C° 0 mm 2 m/S 743 mmHg 81%
23:00 +24°C° 0 mm 2 m/S 743 mmHg 83%

übermorgen, 24 Juni, Donnerstag

Zeit Temperatur Niederschläge Wind Luftdruck Luftfeuchtigkeit
00:00 +23°C° 0 mm 2 m/S 743 mmHg 85%
01:00 +23°C° 0 mm 2 m/S 743 mmHg 88%
02:00 +21°C° 0 mm 2 m/S 743 mmHg 89%
03:00 +21°C° 0 mm 2 m/S 743 mmHg 90%
04:00 +22°C° 0 mm 1 m/S 743 mmHg 91%
05:00 +23°C° 0 mm 1 m/S 743 mmHg 85%
06:00 +25°C° 0 mm 1 m/S 744 mmHg 79%
07:00 +27°C° 0 mm 1 m/S 744 mmHg 73%
08:00 +28°C° 0 mm 1 m/S 744 mmHg 67%
09:00 +30°C° 0 mm 1 m/S 744 mmHg 62%
10:00 +31°C° 0 mm 2 m/S 744 mmHg 56%
11:00 +32°C° 0 mm 2 m/S 743 mmHg 52%
12:00 +34°C° 0 mm 2 m/S 743 mmHg 48%
13:00 +35°C° 0 mm 2 m/S 743 mmHg 44%
14:00 +36°C° 0 mm 2 m/S 743 mmHg 43%
15:00 +36°C° 0 mm 2 m/S 742 mmHg 42%
16:00 +36°C° 0 mm 2 m/S 742 mmHg 41%
17:00 +35°C° 0 mm 2 m/S 742 mmHg 47%
18:00 +32°C° 0 mm 2 m/S 742 mmHg 54%
19:00 +30°C° 0 mm 1 m/S 741 mmHg 60%
20:00 +29°C° 0 mm 1 m/S 741 mmHg 61%
21:00 +28°C° 0 mm 1 m/S 741 mmHg 63%
22:00 +26°C° 0 mm 2 m/S 741 mmHg 65%
23:00 +26°C° 0.1 mm 1 m/S 741 mmHg 68%

25 Juni, Freitag

Zeit Temperatur Niederschläge Wind Luftdruck Luftfeuchtigkeit
00:00 +25°C° 0.1 mm 1 m/S 741 mmHg 70%
01:00 +24°C° 0.1 mm 1 m/S 741 mmHg 73%
02:00 +23°C° 0.1 mm 1 m/S 741 mmHg 76%
03:00 +23°C° 0.1 mm 1 m/S 741 mmHg 78%
04:00 +22°C° 0.1 mm 1 m/S 741 mmHg 81%
05:00 +24°C° 0 mm 1 m/S 741 mmHg 76%
06:00 +25°C° 0 mm 1 m/S 742 mmHg 72%
07:00 +27°C° 0 mm 2 m/S 742 mmHg 67%
08:00 +28°C° 0 mm 2 m/S 742 mmHg 60%
09:00 +30°C° 0 mm 2 m/S 742 mmHg 52%
10:00 +33°C° 0 mm 3 m/S 742 mmHg 45%
11:00 +34°C° 0 mm 3 m/S 742 mmHg 42%
12:00 +35°C° 0 mm 4 m/S 741 mmHg 40%
13:00 +36°C° 0 mm 4 m/S 741 mmHg 37%
14:00 +35°C° 0 mm 4 m/S 741 mmHg 39%
15:00 +35°C° 0 mm 5 m/S 741 mmHg 41%
16:00 +34°C° 0 mm 5 m/S 741 mmHg 43%
17:00 +32°C° 0 mm 5 m/S 740 mmHg 50%
18:00 +28°C° 0 mm 4 m/S 740 mmHg 57%
19:00 +26°C° 0 mm 4 m/S 740 mmHg 63%
20:00 +23°C° 0 mm 4 m/S 741 mmHg 69%
21:00 +21°C° 0 mm 3 m/S 741 mmHg 75%
22:00 +20°C° 0 mm 2 m/S 742 mmHg 81%
23:00 +19°C° 0 mm 2 m/S 742 mmHg 83%

26 Juni, Samstag

Zeit Temperatur Niederschläge Wind Luftdruck Luftfeuchtigkeit
00:00 +19°C° 0 mm 2 m/S 742 mmHg 86%
01:00 +18°C° 0 mm 2 m/S 742 mmHg 89%
02:00 +18°C° 0 mm 2 m/S 742 mmHg 89%
03:00 +17°C° 0 mm 2 m/S 742 mmHg 90%
04:00 +17°C° 0 mm 2 m/S 742 mmHg 91%
05:00 +19°C° 0 mm 2 m/S 743 mmHg 84%
06:00 +20°C° 0 mm 2 m/S 743 mmHg 78%
07:00 +21°C° 0 mm 3 m/S 743 mmHg 71%
08:00 +24°C° 0 mm 3 m/S 743 mmHg 65%
09:00 +25°C° 0 mm 3 m/S 743 mmHg 60%
10:00 +27°C° 0 mm 4 m/S 743 mmHg 54%
11:00 +27°C° 0.3 mm 4 m/S 743 mmHg 53%
12:00 +27°C° 0.3 mm 4 m/S 743 mmHg 52%
13:00 +28°C° 0.3 mm 4 m/S 743 mmHg 52%
14:00 +27°C° 0.3 mm 4 m/S 743 mmHg 54%
15:00 +27°C° 0.3 mm 4 m/S 742 mmHg 55%
16:00 +26°C° 0.3 mm 4 m/S 742 mmHg 57%
17:00 +25°C° 0.6 mm 3 m/S 742 mmHg 64%
18:00 +22°C° 0.6 mm 3 m/S 742 mmHg 70%
19:00 +21°C° 0.6 mm 3 m/S 743 mmHg 77%
20:00 +20°C° 0 mm 3 m/S 743 mmHg 76%
21:00 +19°C° 0 mm 3 m/S 743 mmHg 76%
22:00 +19°C° 0 mm 3 m/S 743 mmHg 76%
23:00 +18°C° 0 mm 3 m/S 743 mmHg 77%

27 Juni, Sonntag

Zeit Temperatur Niederschläge Wind Luftdruck Luftfeuchtigkeit
00:00 +18°C° 0 mm 3 m/S 743 mmHg 79%
01:00 +17°C° 0 mm 3 m/S 743 mmHg 80%
02:00 +17°C° 0 mm 3 m/S 743 mmHg 80%
03:00 +17°C° 0 mm 3 m/S 743 mmHg 80%
04:00 +17°C° 0 mm 3 m/S 744 mmHg 80%
05:00 +18°C° 0 mm 3 m/S 744 mmHg 76%
06:00 +19°C° 0 mm 4 m/S 744 mmHg 71%
07:00 +21°C° 0 mm 4 m/S 744 mmHg 66%
08:00 +22°C° 0 mm 4 m/S 744 mmHg 61%
09:00 +25°C° 0 mm 4 m/S 745 mmHg 56%
10:00 +26°C° 0 mm 4 m/S 745 mmHg 51%
11:00 +27°C° 0 mm 4 m/S 745 mmHg 49%
12:00 +27°C° 0 mm 4 m/S 744 mmHg 48%
13:00 +27°C° 0 mm 4 m/S 744 mmHg 47%
14:00 +28°C° 0 mm 4 m/S 744 mmHg 46%
15:00 +28°C° 0 mm 4 m/S 744 mmHg 45%
16:00 +28°C° 0 mm 3 m/S 744 mmHg 44%
17:00 +26°C° 0 mm 3 m/S 744 mmHg 51%
18:00 +25°C° 0 mm 3 m/S 745 mmHg 58%
19:00 +23°C° 0 mm 2 m/S 745 mmHg 66%
20:00 +21°C° 0 mm 2 m/S 745 mmHg 69%
21:00 +20°C° 0 mm 2 m/S 745 mmHg 72%
22:00 +19°C° 0 mm 2 m/S 745 mmHg 75%
23:00 +19°C° 0 mm 2 m/S 746 mmHg 74%
Mehr zeigen

Wir brauchen deine Erlaubnis

Meteoprog und unser Service Anbieter werden persönliche Daten aufbewahren, so wie Cookies, Geräte Bezeichnung oder ähnliche Technologien von deinem Gerät und Prozess, so wie Persönliche Daten Inhalte und Werbungen, genauso wie social Media und den Verkehr zu analysieren.

  • Aufbewahrung und/oder Zugang zu deiner Geräte Informationen.

    Cookies, Geräte Bezeichnung oder andere Informationen, können aufbewahrt oder Zugang zu deinem Gerät erhalten, für den Grund, der oben angegeben wird.

  • Personalisierte Werbung und Inhalte, Messungen, Einblick in das Publikum und Produkt Entwicklung.

    Werbungen und Inhalte können personalisiert werden, basierend auf ein Profil. Mehr Daten können besser personalisierte Werbungen und Inhalte hinzufügen. Werbung und Inhalte können gezeigt und gemessen werden. Einblicke über das Publikum, welche die Werbung gesehen haben und den Inhalt, können abgeleitet werden. So wie Daten können genutzt werden, um es zu verbessern oder die Benutzer Erfahrung zu verbessern das System und die Software.

Wenn du “Ich stimme zu” klickst, erlaubst du uns, die Cookies zu benutzen die Geräte Bezeichnung, den Web oder ähnliche Technologien zu benutzen. Deine Settings, können in deinem Gerät bei deinem Browser geändert werden.

Für den bestimmten Zweck, berechtigten Interessen beruhen darauf, mehr als auf den Inhalt. Du kannst mehr darüber in unseren Privaten und Cookie Politik lesen.